Home   Weather   Fort St. John   Past weeks
Flag for Canada

Past Weather in Fort St. John, British Columbia, Canada — Yesterday and Last 2 Weeks

Now
43 °F

Passing clouds.


Feels Like: 37 °F
Forecast: 59 / 37 °F
Wind: 9 mph from Southeast

Location: Fort St John

Current Time: Sep 16, 2019 at 9:41:35 pm

Latest Report: Sep 16, 2019 at 9:00 pm


Visibility: 15 mi

Pressure: 29.74 "Hg (27.33 "Hg at 689m altitude)

Humidity: 87%

Dew Point: 39 °F

Location of Fort St. JohnLocation

Past Weather in Fort St. John — Graph

°F

Fort St. John Temperature Yesterday

Maximum temperature yesterday: 54 °F (at 1:00 pm)
Minimum temperature yesterday: 39 °F (at 7:00 am)
Average temperature yesterday: 46 °F

High & Low Weather Summary for the Past Weeks

 TemperatureHumidityPressure
High73 °F (Sep 3, 3:00 pm)100% (Sep 2, 12:00 am)30.26 "Hg (Sep 2, 12:00 am)
Low39 °F (Sep 15, 7:00 am)38% (Sep 2, 3:00 pm)29.62 "Hg (Sep 14, 2:00 pm)
Average52 °F81%30.01 "Hg
* Reported Sep 1 8:00 pm — Sep 16 8:00 pm, Fort St. John. Weather by CustomWeather, © 2019

Note: Actual official high and low records may vary slightly from our data, if they occured in-between our weather recording intervals... More about our weather records

Advertising

Fort St. John Weather History for the Previous 24 Hours

Scroll right to see more
 ConditionsComfort  
Time TempWeatherWind HumidityBarometerVisibility
8:00 pm
Mon, Sep 16
46 °FPassing clouds.6 mph82%29.73 "Hg15 mi
7:00 pm48 °FPassing clouds.9 mph82%29.72 "Hg60 mi
6:00 pm52 °FScattered clouds.9 mph77%29.72 "Hg60 mi
5:00 pm55 °FScattered clouds.7 mph59%29.70 "Hg60 mi
4:00 pm55 °FScattered clouds.5 mph59%29.71 "Hg60 mi
3:00 pm52 °FScattered clouds.3 mph67%29.72 "Hg60 mi
2:00 pm52 °FBroken clouds.6 mph67%29.73 "Hg60 mi
1:00 pm48 °FPartly sunny.8 mph76%29.75 "Hg60 mi
12:00 pm46 °FPartly sunny.8 mph82%29.76 "Hg40 mi
11:00 am45 °FPartly sunny.8 mph87%29.78 "Hg40 mi
10:00 am43 °FLow clouds.9 mph87%29.79 "Hg15 mi
9:00 am41 °FLow clouds.9 mph93%29.80 "Hg8 mi
8:38 am41 °FLow clouds.9 mph93%29.80 "Hg10 mi
8:00 am41 °FMostly cloudy.8 mph93%29.80 "Hg10 mi
7:45 am41 °FMostly cloudy.8 mph93%29.80 "Hg10 mi
7:00 am41 °FLow clouds.8 mph93%29.80 "Hg10 mi
6:00 am41 °FMostly cloudy.7 mph93%29.79 "Hg10 mi
5:00 am41 °FOvercast.8 mph93%29.78 "Hg10 mi
4:53 am41 °FOvercast.9 mph93%29.78 "Hg10 mi
4:00 am41 °FSprinkles. Overcast.9 mph93%29.79 "Hg10 mi
3:00 am41 °FSprinkles. Overcast.10 mph93%29.79 "Hg10 mi
2:00 am41 °FSprinkles. Low clouds.12 mph93%29.79 "Hg10 mi
1:00 am43 °FSprinkles. Overcast.12 mph93%29.79 "Hg10 mi
12:00 am43 °FSprinkles. Overcast.13 mph93%29.79 "Hg10 mi
11:00 pm
Sun, Sep 15
43 °FSprinkles. Fog.13 mph93%29.80 "Hg6 mi
10:00 pm43 °FSprinkles. Fog.12 mph93%29.80 "Hg5 mi
9:00 pm43 °FSprinkles. Fog.12 mph93%29.81 "Hg5 mi
Weather by CustomWeather, © 2019

See weather overview